Weather History for KPRB - April, 2014

Change the Weather History Date:

Wednesday, April 9, 2014

  Actual Average Record
Temperature  
Mean Temperature 64 °F 55 °F  
Max Temperature 87 °F 71 °F 95 °F (1989)
Min Temperature 41 °F 40 °F 27 °F (1953)
Degree Days  
Heating Degree Days 1 10  
Month to date heating degree days 74 92  
Since 1 July heating degree days 2009 2551  
Cooling Degree Days 0 0  
Month to date cooling degree days 2 0  
Year to date cooling degree days 2 0  
Growing Degree Days 14 (Base 50)    
Moisture  
Dew Point 40 °F    
Average Humidity 50    
Maximum Humidity 83    
Minimum Humidity 16    
Precipitation  
Precipitation 0.00 in 0.02 in 0.93 in (1965)
Month to date precipitation 0.32 0.29  
Year to date precipitation 4.44 8.12  
Since 1 July precipitation 4.90  
Sea Level Pressure  
Sea Level Pressure 30.02 in    
Wind  
Wind Speed 4 mph (WSW)    
Max Wind Speed 16 mph    
Max Gust Speed 20 mph    
Visibility 10 miles    
Events      
T = Trace of Precipitation, MM = Missing Value Source: NWS Daily Summary

Daily Weather History Graph

Daily Weather History Graph

Search for Another Location

Airport or City:

Trip Planner

Search our weather history database for the weather conditions in past years. The results will help you decide how hot, cold, wet, or windy it might be!

Date:

Astronomy

Apr. 09, 2014 Rise Set
Actual Time 6:37 AM PDT 7:30 PM PDT
Civil Twilight 6:11 AM PDT 7:56 PM PDT
Nautical Twilight 5:40 AM PDT 8:27 PM PDT
Astronomical Twilight 5:09 AM PDT 8:59 PM PDT
Moon 2:33 PM PDT (4/9) 3:19 AM PDT (4/9)
Length of Visible Light 13h 45m
Length of Day
12h 53m
Waxing Gibbous, 72% of the Moon is Illuminated
Apr 9
Waxing Gibbous
Apr 15
Full
Apr 22
Last Quarter
Apr 28
New
May 6
First Quarter

Hourly Weather History & Observations

Time (PDT) Temp. Dew Point Humidity Pressure Visibility Wind Dir Wind Speed Gust Speed Precip Events Conditions
12:53 AM 53.1 °F 39.0 °F 59% 30.07 in 10.0 mi Calm Calm - N/A   Clear
1:53 AM 52.0 °F 41.0 °F 66% 30.06 in 10.0 mi West 3.5 mph - N/A   Clear
2:53 AM 50.0 °F 43.0 °F 77% 30.06 in 10.0 mi Calm Calm - N/A   Clear
3:53 AM 45.0 °F 39.9 °F 82% 30.05 in 10.0 mi Calm Calm - N/A   Clear
4:53 AM 45.0 °F 39.9 °F 82% 30.05 in 10.0 mi Calm Calm - N/A   Clear
5:53 AM 44.1 °F 39.0 °F 82% 30.06 in 10.0 mi Calm Calm - N/A   Clear
6:53 AM 44.1 °F 39.0 °F 82% 30.07 in 10.0 mi Calm Calm - N/A   Clear
7:53 AM 48.0 °F 42.1 °F 80% 30.09 in 10.0 mi Calm Calm - N/A   Clear
8:12 AM 48.9 °F 41.0 °F 74% 30.09 in 10.0 mi Calm Calm - N/A   Partly Cloudy
8:53 AM 53.1 °F 43.0 °F 69% 30.09 in 10.0 mi Calm Calm - N/A   Clear
9:53 AM 57.9 °F 41.0 °F 53% 30.09 in 10.0 mi Calm Calm - N/A   Clear
10:53 AM 64.9 °F 42.1 °F 43% 30.08 in 10.0 mi NW 4.6 mph - N/A   Clear
11:53 AM 71.1 °F 44.1 °F 38% 30.05 in 10.0 mi Variable 4.6 mph - N/A   Clear
12:53 PM 77.0 °F 39.9 °F 26% 30.02 in 10.0 mi Variable 3.5 mph - N/A   Clear
1:53 PM 81.0 °F 39.0 °F 22% 29.99 in 10.0 mi Calm Calm - N/A   Clear
2:53 PM 84.0 °F 35.1 °F 17% 29.96 in 10.0 mi Variable 5.8 mph - N/A   Clear
3:53 PM - - N/A% 29.96 in 10.0 mi Variable 3.5 mph - N/A   Clear
4:53 PM 84.9 °F 34.0 °F 16% 29.94 in 10.0 mi SSW 13.8 mph - N/A   Clear
5:53 PM 80.1 °F 36.0 °F 20% 29.94 in 10.0 mi SSW 15.0 mph - N/A   Clear
6:53 PM 75.0 °F 37.9 °F 26% 29.94 in 10.0 mi South 12.7 mph - N/A   Clear
7:53 PM 69.1 °F 34.0 °F 27% 29.96 in 10.0 mi SSW 6.9 mph - N/A   Clear
8:53 PM 64.0 °F 42.1 °F 45% 29.98 in 10.0 mi WNW 6.9 mph - N/A   Clear
9:53 PM 63.0 °F 39.0 °F 41% 30.00 in 10.0 mi WNW 8.1 mph - N/A   Clear
10:53 PM 61.0 °F 37.9 °F 42% 30.01 in 10.0 mi WNW 9.2 mph - N/A   Clear
11:53 PM 55.0 °F 42.1 °F 62% 30.01 in 10.0 mi Calm Calm - N/A   Clear